• In Austria
  • List of Countries
  • For 7 days
  • Water Temperature
  • Satellite Maps
  • Weather Map
  • News
  • Weather Widgets
  • user-avatar
    Login

    Hourly Weather Beverly

    Today, 19 September, Wednesday

    Time Temperature Precipitation Wind Pressure Humidity
    00:00 +16°C° 0 mm 7 mps 754 mmHg 79%
    01:00 +16°C° 0 mm 7 mps 754 mmHg 80%
    02:00 +16°C° 0 mm 7 mps 755 mmHg 81%
    03:00 +15°C° 0 mm 7 mps 755 mmHg 83%
    04:00 +15°C° 0 mm 7 mps 754 mmHg 84%
    05:00 +15°C° 0 mm 7 mps 754 mmHg 86%
    06:00 +14°C° 0 mm 6 mps 754 mmHg 87%
    07:00 +15°C° 0 mm 8 mps 754 mmHg 82%
    08:00 +16°C° 0 mm 9 mps 753 mmHg 76%
    09:00 +17°C° 0 mm 10 mps 753 mmHg 71%
    10:00 +18°C° 0 mm 11 mps 753 mmHg 68%
    11:00 +19°C° 0 mm 12 mps 752 mmHg 65%
    12:00 +19°C° 0 mm 13 mps 752 mmHg 62%
    13:00 +19°C° 0.2 mm 12 mps 752 mmHg 63%
    14:00 +18°C° 0.2 mm 12 mps 752 mmHg 64%
    15:00 +17°C° 0.2 mm 12 mps 752 mmHg 65%
    16:00 +16°C° 0 mm 10 mps 753 mmHg 63%
    17:00 +15°C° 0 mm 9 mps 754 mmHg 62%
    18:00 +13°C° 0 mm 8 mps 755 mmHg 60%
    19:00 +13°C° 0 mm 8 mps 755 mmHg 61%
    20:00 +12°C° 0 mm 7 mps 756 mmHg 61%
    21:00 +11°C° 0 mm 7 mps 757 mmHg 62%
    22:00 +11°C° 0 mm 7 mps 757 mmHg 62%
    23:00 +11°C° 0 mm 7 mps 757 mmHg 63%

    Tomorrow, 20 September, Thursday

    Time Temperature Precipitation Wind Pressure Humidity
    00:00 +11°C° 0 mm 7 mps 757 mmHg 64%
    01:00 +11°C° 0.2 mm 7 mps 757 mmHg 68%
    02:00 +10°C° 0.2 mm 6 mps 757 mmHg 73%
    03:00 +10°C° 0.2 mm 6 mps 757 mmHg 77%
    04:00 +10°C° 0.5 mm 5 mps 757 mmHg 79%
    05:00 +10°C° 0.5 mm 5 mps 757 mmHg 82%
    06:00 +11°C° 0.5 mm 4 mps 756 mmHg 84%
    07:00 +11°C° 0.1 mm 3 mps 756 mmHg 83%
    08:00 +11°C° 0.1 mm 3 mps 756 mmHg 82%
    09:00 +12°C° 0.1 mm 3 mps 756 mmHg 80%
    10:00 +12°C° 0.2 mm 3 mps 756 mmHg 78%
    11:00 +14°C° 0.2 mm 2 mps 755 mmHg 76%
    12:00 +15°C° 0.2 mm 2 mps 755 mmHg 74%
    13:00 +14°C° 0.6 mm 3 mps 754 mmHg 78%
    14:00 +14°C° 0.6 mm 3 mps 753 mmHg 82%
    15:00 +14°C° 0.6 mm 4 mps 753 mmHg 85%
    16:00 +15°C° 2.6 mm 6 mps 751 mmHg 86%
    17:00 +15°C° 2.6 mm 7 mps 750 mmHg 87%
    18:00 +15°C° 2.6 mm 9 mps 748 mmHg 87%
    19:00 +16°C° 0.8 mm 10 mps 747 mmHg 87%
    20:00 +16°C° 0.8 mm 11 mps 746 mmHg 86%
    21:00 +17°C° 0.8 mm 12 mps 745 mmHg 85%
    22:00 +17°C° 1.1 mm 11 mps 744 mmHg 85%
    23:00 +17°C° 1.1 mm 11 mps 743 mmHg 85%

    Day after tomorrow, 21 September, Friday

    Time Temperature Precipitation Wind Pressure Humidity
    00:00 +17°C° 1.1 mm 11 mps 742 mmHg 85%
    01:00 +14°C° 0.4 mm 12 mps 742 mmHg 81%
    02:00 +12°C° 0.4 mm 13 mps 743 mmHg 77%
    03:00 +9°C° 0.4 mm 14 mps 743 mmHg 73%
    04:00 +8°C° 0 mm 14 mps 744 mmHg 72%
    05:00 +8°C° 0 mm 14 mps 746 mmHg 71%
    06:00 +8°C° 0 mm 13 mps 747 mmHg 71%
    07:00 +8°C° 0 mm 13 mps 748 mmHg 67%
    08:00 +9°C° 0 mm 13 mps 749 mmHg 64%
    09:00 +10°C° 0 mm 13 mps 750 mmHg 60%
    10:00 +10°C° 0 mm 12 mps 750 mmHg 60%
    11:00 +11°C° 0 mm 11 mps 751 mmHg 60%
    12:00 +12°C° 0 mm 10 mps 752 mmHg 59%
    13:00 +12°C° 0 mm 10 mps 752 mmHg 60%
    14:00 +12°C° 0 mm 10 mps 753 mmHg 61%
    15:00 +12°C° 0 mm 10 mps 753 mmHg 62%
    16:00 +12°C° 0.1 mm 10 mps 754 mmHg 64%
    17:00 +11°C° 0.1 mm 10 mps 755 mmHg 67%
    18:00 +11°C° 0.1 mm 9 mps 756 mmHg 69%
    19:00 +10°C° 0 mm 9 mps 757 mmHg 71%
    20:00 +10°C° 0 mm 8 mps 758 mmHg 72%
    21:00 +9°C° 0 mm 8 mps 758 mmHg 74%
    22:00 +9°C° 0 mm 8 mps 759 mmHg 74%
    23:00 +9°C° 0 mm 8 mps 759 mmHg 74%

    22 September, Saturday

    Time Temperature Precipitation Wind Pressure Humidity
    00:00 +8°C° 0 mm 7 mps 760 mmHg 74%
    01:00 +8°C° 0 mm 7 mps 760 mmHg 74%
    02:00 +8°C° 0 mm 7 mps 761 mmHg 74%
    03:00 +6°C° 0 mm 7 mps 761 mmHg 75%
    04:00 +6°C° 0 mm 7 mps 762 mmHg 75%
    05:00 +6°C° 0 mm 7 mps 762 mmHg 75%
    06:00 +6°C° 0 mm 7 mps 762 mmHg 75%
    07:00 +8°C° 0 mm 7 mps 763 mmHg 71%
    08:00 +9°C° 0 mm 8 mps 763 mmHg 66%
    09:00 +11°C° 0 mm 8 mps 764 mmHg 61%
    10:00 +11°C° 0 mm 8 mps 764 mmHg 58%
    11:00 +12°C° 0 mm 7 mps 764 mmHg 55%
    12:00 +14°C° 0 mm 7 mps 764 mmHg 52%
    13:00 +14°C° 0 mm 7 mps 764 mmHg 52%
    14:00 +14°C° 0 mm 6 mps 764 mmHg 52%
    15:00 +14°C° 0 mm 6 mps 764 mmHg 53%
    16:00 +13°C° 0 mm 5 mps 764 mmHg 57%
    17:00 +12°C° 0 mm 5 mps 764 mmHg 60%
    18:00 +11°C° 0 mm 4 mps 764 mmHg 64%
    19:00 +11°C° 0 mm 3 mps 764 mmHg 65%
    20:00 +10°C° 0 mm 3 mps 764 mmHg 66%
    21:00 +10°C° 0 mm 2 mps 764 mmHg 67%
    22:00 +10°C° 0.1 mm 2 mps 763 mmHg 69%
    23:00 +10°C° 0.1 mm 2 mps 763 mmHg 71%

    23 September, Sunday

    Time Temperature Precipitation Wind Pressure Humidity
    00:00 +10°C° 0.1 mm 2 mps 762 mmHg 73%
    01:00 +10°C° 1.7 mm 4 mps 761 mmHg 78%
    02:00 +8°C° 1.7 mm 5 mps 759 mmHg 84%
    03:00 +8°C° 1.7 mm 7 mps 757 mmHg 90%
    04:00 +9°C° 3.2 mm 8 mps 755 mmHg 90%
    05:00 +8°C° 3.2 mm 10 mps 753 mmHg 90%
    06:00 +8°C° 3.2 mm 11 mps 751 mmHg 90%
    07:00 +11°C° 2.1 mm 11 mps 748 mmHg 91%
    08:00 +12°C° 2.1 mm 11 mps 745 mmHg 92%
    09:00 +13°C° 2.1 mm 11 mps 742 mmHg 93%
    10:00 +14°C° 1.7 mm 11 mps 740 mmHg 86%
    11:00 +16°C° 1.7 mm 10 mps 737 mmHg 80%
    12:00 +17°C° 1.7 mm 10 mps 735 mmHg 74%
    13:00 +16°C° 0.5 mm 9 mps 734 mmHg 77%
    14:00 +15°C° 0.5 mm 8 mps 734 mmHg 81%
    15:00 +13°C° 0.5 mm 8 mps 733 mmHg 84%
    16:00 +12°C° 0.9 mm 13 mps 736 mmHg 81%
    17:00 +10°C° 0.9 mm 18 mps 739 mmHg 79%
    18:00 +8°C° 0.9 mm 23 mps 742 mmHg 76%
    19:00 +7°C° 0.7 mm 21 mps 746 mmHg 74%
    20:00 +7°C° 0.7 mm 19 mps 750 mmHg 72%
    21:00 +7°C° 0.7 mm 18 mps 755 mmHg 69%
    22:00 +7°C° 0 mm 16 mps 757 mmHg 69%
    23:00 +6°C° 0 mm 15 mps 759 mmHg 68%

    24 September, Monday

    Time Temperature Precipitation Wind Pressure Humidity
    00:00 +6°C° 0 mm 14 mps 762 mmHg 68%
    01:00 +5°C° 0 mm 13 mps 763 mmHg 68%
    02:00 +4°C° 0 mm 13 mps 765 mmHg 68%
    03:00 +4°C° 0 mm 12 mps 766 mmHg 69%
    04:00 +3°C° 0 mm 11 mps 768 mmHg 69%
    05:00 +3°C° 0 mm 10 mps 769 mmHg 69%
    06:00 +3°C° 0 mm 9 mps 770 mmHg 70%
    07:00 +5°C° 0 mm 9 mps 771 mmHg 67%
    08:00 +6°C° 0 mm 8 mps 772 mmHg 63%
    09:00 +7°C° 0 mm 8 mps 772 mmHg 60%
    10:00 +9°C° 0 mm 7 mps 773 mmHg 57%
    11:00 +10°C° 0 mm 7 mps 774 mmHg 54%
    12:00 +11°C° 0 mm 6 mps 774 mmHg 50%
    13:00 +13°C° 0 mm 6 mps 774 mmHg 51%
    14:00 +13°C° 0 mm 5 mps 774 mmHg 52%
    15:00 +13°C° 0 mm 5 mps 774 mmHg 52%
    16:00 +13°C° 0 mm 4 mps 775 mmHg 57%
    17:00 +12°C° 0 mm 4 mps 775 mmHg 63%
    18:00 +11°C° 0 mm 4 mps 775 mmHg 68%
    19:00 +10°C° 0 mm 4 mps 775 mmHg 71%
    20:00 +8°C° 0 mm 5 mps 776 mmHg 73%
    21:00 +8°C° 0 mm 5 mps 776 mmHg 76%
    22:00 +7°C° 0 mm 5 mps 776 mmHg 77%
    23:00 +7°C° 0 mm 5 mps 776 mmHg 78%
    Show more